AKDT,Max TemperatureF,Mean TemperatureF,Min TemperatureF,Max Dew PointF,MeanDew PointF,Min DewpointF,Max Humidity, Mean Humidity, Min Humidity, Max Sea Level PressureIn, Mean Sea Level PressureIn, Min Sea Level PressureIn, Max VisibilityMiles, Mean VisibilityMiles, Min VisibilityMiles, Max Wind SpeedMPH, Mean Wind SpeedMPH, Max Gust SpeedMPH,PrecipitationIn, CloudCover, Events, WindDirDegrees
2013-7-1,60,56,54,56,54,49,94,89,69,29.97,29.91,29.89,10,10,5,15,6,26,0.19,7,Rain,89
2013-7-2,57,55,53,52,50,48,94,84,77,30.07,30.02,29.93,10,10,10,18,12,31,0.01,8,Rain,103
2013-7-3,59,55,53,52,51,50,94,86,80,30.12,30.09,30.05,10,10,10,14,10,26,0.01,8,Rain,97
2013-7-4,62,58,53,51,49,46,86,76,62,30.18,30.14,30.11,10,10,10,14,7,22,0.00,7,Rain,104
2013-7-5,62,58,54,50,48,46,80,72,64,30.22,30.19,30.17,10,10,10,14,8,18,0.00,8,,103
2013-7-6,61,56,53,51,49,47,89,78,67,30.17,30.13,30.06,10,10,10,8,5,,0.00,8,,112
2013-7-7,61,58,55,52,49,47,89,74,62,30.06,29.98,29.86,10,10,6,16,8,21,0.06,8,Rain,95
2013-7-8,63,58,54,55,53,46,94,85,69,29.95,29.84,29.80,10,10,9,18,12,29,0.11,8,Rain,94
2013-7-9,55,53,51,50,48,46,88,82,75,30.05,30.01,29.95,10,10,10,16,10,31,0.00,7,,102
2013-7-10,66,57,48,50,47,44,93,73,44,30.01,29.93,29.86,10,10,10,12,5,17,0.00,1,,8
2013-7-11,60,53,46,51,49,45,97,82,69,29.93,29.88,29.85,10,10,10,9,3,,0.00,5,,123
2013-7-12,63,56,50,53,50,48,96,81,65,30.03,29.97,29.94,10,10,10,13,4,20,0.00,4,,99
2013-7-13,64,59,53,55,50,45,93,74,48,30.24,30.13,30.04,10,10,10,12,6,17,0.00,3,Rain,109
2013-7-14,68,56,46,51,48,44,93,70,52,30.30,30.25,30.19,10,10,10,10,5,,0.00,0,,124
2013-7-15,64,56,48,53,50,47,93,75,60,30.28,30.23,30.17,10,10,10,13,5,,0.00,0,,115
2013-7-16,69,60,50,55,52,48,96,78,58,30.20,30.11,30.02,10,10,9,10,3,,0.00,0,,116
2013-7-17,73,62,53,57,54,52,94,74,57,30.04,29.98,29.93,10,10,10,12,3,,0.00,0,,124
2013-7-18,69,60,53,55,53,51,93,73,61,30.22,30.15,30.00,10,10,10,14,6,23,0.00,4,,109
2013-7-19,62,59,57,55,54,53,88,81,77,30.22,30.16,30.09,10,10,10,9,6,17,0.00,8,,103
2013-7-20,62,60,57,56,54,53,94,85,77,30.10,30.01,29.90,10,10,10,15,6,22,0.00,8,Rain,109
2013-7-21,59,56,53,56,54,52,100,95,82,29.97,29.91,29.89,10,8,0,8,2,,0.55,8,Fog-Rain,102
2013-7-22,64,58,51,56,53,52,100,88,70,30.08,30.03,29.97,10,8,2,12,3,,0.03,7,Rain,114
2013-7-23,78,66,55,54,53,49,93,69,39,30.09,30.05,29.99,10,10,10,18,7,20,0.00,5,,300
2013-7-24,63,58,53,56,54,51,97,90,77,30.09,30.08,30.06,10,10,8,9,4,17,0.04,6,Rain,108
2013-7-25,64,58,53,55,54,52,97,84,72,30.15,30.11,30.07,10,10,10,10,6,18,0.01,7,,104
2013-7-26,64,60,57,55,53,51,88,81,70,30.30,30.21,30.15,10,10,10,10,7,16,0.01,8,Rain,93
2013-7-27,66,58,53,55,53,51,100,84,70,30.32,30.27,30.19,10,10,10,10,3,,0.00,5,Rain,126
2013-7-28,80,64,52,59,54,50,97,71,45,30.25,30.16,30.09,10,10,10,14,4,20,0.00,0,,288
2013-7-29,75,66,57,57,55,53,87,70,50,30.14,30.10,30.04,10,10,10,7,2,,0.00,0,,134
2013-7-30,72,64,55,57,55,53,90,74,57,30.16,30.13,30.10,10,10,10,10,2,,0.00,0,,116
2013-7-31,69,59,50,57,53,48,100,83,65,30.20,30.15,30.05,10,8,1,13,2,,0.00,0,,119